Location: Kalisz
(51.7575°N, 18.0800°E)
Time: 20:40:05
(UTC+01:00)

ISS - Visible Passes

Search period start: 18 January 2018 00:00
Search period end: 28 January 2018 00:00
Orbit: 402 x 407 km, 51.6° (Epoch: 18 January)

Date Brightness Start Highest point End Pass type
(mag) Time Alt. Az. Time Alt. Az. Time Alt. Az.
26 Jan -1.3 18:55:33 10° SSW 18:56:18 15° SSW 18:56:18 15° SSW visible
27 Jan -1.9 18:03:56 10° S 18:06:07 17° SE 18:06:18 17° SE visible
27 Jan -0.5 19:38:55 10° WSW 19:38:58 10° WSW 19:38:58 10° WSW visible
